Погода в Саньмине

Китай     26°15′05″N   117°36′56″E
темп.,
°C
ветер,
м/с
пор.,
м/с
влажн.,
%
обл.,
%
осадки,
мм/ч
давл.,
гПа
погр.,
м
12 апреля, пн
пн1223:00+18всв118648 0.0 101811
02:00+17вюв11884 0.0 101611
05:00+17в01910 0.0 101611
08:00+21ююз11750 0.0 1016311
11:00+27зюз35517 0.0 10161425
14:00+28зюз374898 0.0 10122071
17:00+26ссз2460100 0.0 1012211
20:00+22с117588 0.0 101414
13 апреля, вт
вт1323:00+20ссв118715 0.2 101529
02:00+19ссв119485 0.3 101546
05:00+19ссв119725 0.0 101515
08:00+22с118372 0.0 1016472
11:00+26в016245 0.1 1015996
14:00+28з1355100 1.0 10121486
17:00+24ссз1278100 1.4 1012162
20:00+20сз119233 4.7 101315
14 апреля, ср
ср1423:00+19с129773 1.4 101539
02:00+19сз1297100 2.0 1014113
05:00+18зсз1296100 0.8 1015164
08:00+18ссз1195100 1.8 1016162
11:00+18ссз1294100 0.8 1016228
14:00+18ссз1296100 3.6 1015293
17:00+17всв2296100 4.5 1015228
20:00+16с1297100 7.2 1016160
15 апреля, чт
чт1523:00+16св2296100 1.3 1017185
02:00+15ссв1296100 2.4 1016163
05:00+15св1296100 0.8 1016135
08:00+15всв1295100 1.3 1016157
11:00+15ссв1193100 0.7 1016199
14:00+15ссв1197100 7.0 1015158
17:00+15св1198100 3.9 1015100
20:00+15ссв1298100 5.5 1017101
16 апреля, пт
пт1623:00+15всв1197100 0.0 101857
02:00+15ссв1197100 0.0 101750
05:00+15св1197100 0.1 101772
08:00+16всв119397 0.1 1018179
11:00+22с117249 0.0 1017756
14:00+22з126787 0.1 1015895
17:00+22с117177 0.3 1014698
20:00+18св119045 0.4 101611